Weather in Staraya Poltavka

Russia / Volgograd Oblast     50°28′40″N   46°28′56″E
temp.,
°C
wind,
m/s
gust,
m/s
humid.,
%
clouds,
%
prec.,
mm/h
press.,
hPa
HPBL,
m
18 may, tue
tue1800:00+19e510405 0.0 1012140
03:00+18e59425 0.0 1012111
06:00+19e514445 0.0 1011259
09:00+28se812280 0.0 1010550
12:00+32se1013180 0.0 10103603
15:00+32ese1014201 0.0 10094032
18:00+29ese612315 0.0 1008310
21:00+23se443478 0.0 101038
19 may, wed
wed1900:00+22e453392 0.0 100970
03:00+19s443932 0.0 100952
06:00+19ssw237298 0.0 1010116
09:00+24sse125324 0.0 1010596
12:00+30se353017 0.0 10101275
15:00+32se792399 0.0 10082364
18:00+29ese71330100 0.0 1007394
21:00+21wnw6860100 0.0 1010275
20 may, thu
thu2000:00+17w5117485 0.4 1012465
03:00+15sw2476100 0.4 1013162
06:00+15sw457698 0.0 1013324
09:00+19ssw4559100 0.0 10131051
12:00+21ssw5648100 0.1 10131995
15:00+21sw575297 0.1 10121556
18:00+20sw68545 0.0 10121524
21:00+16sw487119 0.0 1013166
21 may, fri
fri2100:00+14sw37815 0.0 1014163
03:00+13sw358799 0.0 101591
06:00+15ssw467997 0.0 1016262
09:00+20sw575499 0.0 1017989
12:00+24sw57385 0.0 10171587
15:00+26wsw453678 0.0 10171661
18:00+24wsw1249100 0.0 101717
21:00+22ese235055 0.0 101717
22 may, sat
sat2200:00+19ese465678 0.0 101886
03:00+17e485857 0.0 1018139
06:00+19ese5125895 0.0 1018349
09:00+26se710405 0.0 1017840
12:00+30se911275 0.0 10161729
15:00+31sse8112293 0.0 10142092
18:00+29se5103232 0.0 1013250
21:00+23ese5134691 0.0 1013201